User: anonymous   Login
Location: Unspecified
(0.0000°N, 0.0000°E)
Time: 06:09:37
(UTC+00:00)
Language:

OFEQ 11 - Orbit

View from above orbital plane
View from above orbital plane
View from above satellite
View from above satellite

Ground track
Ground track

The orbit data is extracted from the following two-line orbital elements,

1 41759U 16056A   17287.95244962 0.00016000  00000-0  27986-3 0    05
2 41759 141.9402 237.6556 0092999  96.1006 263.8986 15.44828644    01
Epoch (UTC): 14 October 2017 22:51:31
Eccentricity: 0.0092999
inclination: 141.9402°
perigee height: 368 km
apogee height: 495 km
right ascension of ascending node: 237.6556°
argument of perigee: 96.1006°
revolutions per day: 15.44828644
mean anomaly at epoch: 263.8986°
orbit number at epoch: 0

The dashed part of the orbit path shows where the satellite is in the earth's shadow,  

DLR